CAPE
1908 1961 2098 2186 2084 2038 2387 2155 2120 1931 2287 2018 2505 2445 2409 2322 2170 2209 2387 2686 2936 2936 3167 3370 3337 3282 3143 2951 2974 2692 2766 2666 2598 2429 2471 1929 1418 958 951 978 501 286
1969 1985 2094 2132 2073 2098 2361 2412 2280 2128 2126 2525 2158 2497 2606 2532 2493 2176 2278 2791 2991 2940 3018 3305 3133 3332 3307 2981 3020 2890 2752 2611 2592 2574 2368 2356 1790 1239 1120 838 800 343
2002 2043 2062 2124 2061 2009 2081 2483 2452 2244 2154 2352 2663 2450 2582 2753 2623 2385 2190 2760 3009 2985 2922 3184 3172 3144 3388 3087 2838 2772 3046 2595 2664 2660 2368 2419 2026 1514 1024 1157 883 854
2056 2056 2083 2148 2104 1997 1918 2042 2589 2538 2383 2393 2642 2821 2669 2705 2689 2461 2219 2825 2975 3002 2931 2934 3281 3173 3280 3088 2993 2811 2832 2906 2658 2682 2399 2320 2019 1705 1131 1225 1045 946
2141 2140 2157 2139 2156 2047 1928 1809 2034 2689 2697 2698 2706 2947 2973 2742 2692 2518 2514 2491 2761 2912 2922 2860 3031 3280 3285 3152 3176 2893 2896 3043 2732 2716 2406 2224 1971 1715 1224 1099 1230 1070
2088 2130 2209 2246 2219 2111 2027 1852 1794 2180 2819 2968 2970 2962 3157 2997 2723 2634 2388 2716 2719 2830 2903 2951 2918 3172 3367 3267 3352 3059 3027 3055 3044 2762 2582 2333 2113 1748 1334 1100 1255 1264
2015 2028 2154 2278 2303 2212 2128 2015 1835 1857 2365 2870 3150 3044 2953 3218 2960 2727 2461 2443 2742 2819 2930 3045 3000 3065 3380 3361 3381 3335 3086 3222 3174 2876 2888 2536 2297 1979 1588 1292 1120 1299
2000 1970 2036 2186 2271 2237 2201 2159 2016 1887 1962 2368 2908 3179 2923 2768 3021 2911 2642 2306 2519 2720 2902 3101 3121 3082 3279 3408 3351 3345 3241 3124 3200 3142 2888 2908 2590 2223 1918 1557 1194 1188
2094 2020 2012 2108 2202 2224 2238 2244 2152 2021 1970 2144 2376 2937 3090 2787 2504 2721 2772 2490 2352 2525 2693 3038 3179 3118 3145 3334 3352 3269 3245 3083 3012 3145 3075 2902 2837 2503 2128 1811 1437 1326
2234 2145 2091 2122 2153 2171 2256 2334 2339 2170 2089 2158 2266 2492 3012 3033 2695 2365 2752 2792 2546 2432 2480 2729 3080 3134 3080 3149 3260 3226 3141 3042 2896 2939 3035 2928 2803 2644 2300 1959 1640 1404
2402 2264 2178 2149 2160 2153 2196 2336 2458 2458 2310 2282 2371 2411 2665 2976 2938 2573 2356 2809 2834 2616 2497 2508 2821 3041 3034 2997 3071 3110 3047 2934 2815 2770 2927 2915 2754 2598 2392 2066 1765 1507
2565 2396 2273 2198 2154 2162 2241 2338 2391 2529 2610 2483 2497 2552 2571 2775 2914 2813 2465 2383 2862 2912 2786 2618 2682 2903 2938 2900 2897 2974 2966 2872 2737 2632 2722 2870 2766 2568 2382 2190 1879 1578
2690 2517 2340 2288 2241 2154 2169 2289 2295 2328 2587 2678 2582 2595 2602 2704 2856 2891 2752 2441 2412 2847 3038 2992 2818 2854 2946 2895 2808 2839 2896 2846 2732 2605 2512 2669 2764 2612 2388 2179 1966 1752
2724 2615 2468 2360 2278 2225 2180 2205 2183 2096 2225 2578 2644 2558 2524 2546 2797 2883 2892 2728 2432 2493 2804 3120 3150 2963 2916 2932 2809 2712 2834 2861 2794 2684 2551 2473 2633 2685 2508 2258 2020 1857
2661 2605 2551 2460 2398 2284 2212 2258 2281 2099 2006 2204 2498 2490 2390 2361 2531 2854 2864 2868 2834 2678 2620 2837 3193 3221 3009 2918 2863 2704 2698 2893 2896 2819 2715 2594 2528 2612 2629 2497 2248 2018
2635 2555 2535 2520 2533 2417 2296 2226 2256 2190 1958 2044 2498 2531 2375 2324 2306 2566 2878 2866 2930 2997 2892 2832 2975 3254 3222 2986 2880 2783 2684 2777 2944 2938 2878 2762 2631 2561 2599 2592 2462 2274
2738 2630 2575 2537 2590 2600 2476 2280 2153 2096 1983 1946 2305 2732 2696 2622 2517 2370 2643 2910 2869 3023 3156 3044 2949 3009 3248 3256 3041 2895 2776 2752 2898 3020 2981 2942 2824 2672 2599 2638 2626 2486
3067 2876 2819 2643 2547 2654 2637 2409 2149 1994 1956 2014 2113 2619 2894 2844 2792 2624 2470 2796 2965 2947 3139 3256 3159 3008 3051 3282 3284 3120 2942 2874 2934 3056 3118 3076 3020 2906 2768 2694 2720 2704
3449 3092 3054 2925 2660 2619 2664 2569 2306 2069 1992 2020 2110 2346 2900 3059 3001 2902 2702 2526 2947 3108 3101 3262 3311 3227 3156 3199 3321 3304 3173 2993 2991 3048 3168 3195 3158 3099 3008 2911 2836 2826
3658 3412 3201 3167 2998 2730 2680 2679 2504 2225 2060 2071 2139 2184 2497 3011 3140 3072 2983 2779 2636 3036 3216 3230 3384 3436 3385 3291 3287 3337 3320 3184 2978 3032 3062 3151 3211 3165 3114 3069 3021 2963
3793 3601 3362 3334 3261 3052 2815 2779 2720 2498 2215 2130 2168 2229 2284 2538 2944 3136 3146 3114 2929 2704 3060 3329 3400 3541 3592 3500 3382 3343 3345 3325 3094 3010 2978 2952 3028 3139 3113 3047 3033 3034
3903 3759 3605 3540 3522 3429 3171 2977 2951 2844 2551 2290 2224 2268 2336 2372 2506 2804 3126 3239 3220 3077 2844 2956 3396 3530 3678 3715 3629 3498 3389 3325 3180 3040 2961 2858 2778 2820 3037 3056 2982 2975
4007 3906 3784 3734 3726 3742 3624 3349 3200 3188 3038 2725 2446 2352 2410 2502 2538 2595 2779 3070 3246 3267 3152 2936 2911 3398 3705 3789 3820 3746 3634 3477 3330 3180 3045 2950 2825 2714 2743 2937 3052 2979
4113 4063 3961 3910 3910 3953 3910 3781 3575 3487 3482 3296 2939 2668 2590 2644 2698 2758 2826 2954 3137 3268 3274 3195 3010 2924 3409 3858 3967 3951 3859 3737 3642 3516 3417 3252 3064 2949 2864 2834 2939 3116
4309 4233 4140 4061 4060 4073 4110 4096 3986 3864 3830 3798 3523 3175 2939 2940 3082 3079 3085 3126 3208 3306 3416 3407 3317 3190 3093 3304 3829 4101 4143 4084 3959 3855 3714 3618 3545 3466 3304 3111 3074 3162
4584 4497 4365 4264 4207 4213 4292 4321 4276 4198 4169 4180 4032 3724 3431 3275 3391 3505 3508 3470 3466 3473 3518 3612 3608 3575 3510 3403 3342 3673 4092 4246 4236 4145 4056 3957 3866 3769 3683 3585 3463 3304
Wind_Speed
5 5 5 5 4 4 4 4 4 5 4 6 7 8 10 9 10 11 11 10 11 12 11 11 12 12 14 14 14 14 14 14 13 13 13 12 11 10 11 11 11 12
5 5 5 5 5 5 5 5 6 7 6 6 6 7 8 9 10 12 11 11 11 12 11 11 12 12 13 14 14 14 15 14 15 13 14 13 12 12 12 12 12 12
5 5 5 5 5 5 5 6 7 7 6 6 6 7 7 8 10 10 11 12 12 13 13 12 13 13 13 13 14 15 15 16 16 15 15 15 14 14 12 13 12 12
5 6 6 7 6 6 6 5 5 6 6 6 6 6 6 6 8 10 11 12 12 13 14 14 14 14 14 14 15 15 16 16 16 16 16 15 15 15 14 13 13 12
7 6 5 6 7 7 6 6 5 6 6 7 6 6 6 7 8 9 11 12 13 14 14 15 15 15 16 16 16 16 16 16 16 17 17 16 15 16 15 14 14 14
5 7 7 7 7 8 8 8 7 6 7 7 8 8 8 9 10 10 11 13 14 16 16 16 17 16 17 18 18 17 18 18 17 17 17 17 16 16 16 17 15 14
7 7 7 5 5 6 7 7 7 6 7 7 8 9 10 11 13 14 14 14 16 17 18 18 19 18 18 19 19 19 19 19 19 19 19 17 17 17 16 18 18 16
5 4 4 2 3 4 4 6 7 7 8 9 10 12 14 14 15 15 16 16 16 17 18 19 19 20 20 19 19 19 19 19 20 21 20 19 18 18 17 16 18 18
3 3 3 3 4 3 4 5 6 8 9 11 12 13 15 16 15 15 16 16 16 16 18 19 20 20 20 20 20 20 20 19 20 22 22 21 20 20 19 17 17 17
4 4 5 5 5 4 6 7 8 9 11 12 14 14 15 15 15 14 14 16 17 18 18 18 20 20 21 21 21 21 20 20 20 21 22 22 22 21 21 20 19 17
5 5 6 8 8 7 9 10 11 12 13 14 14 14 14 14 13 13 14 16 18 19 19 19 20 20 21 21 20 21 21 20 20 20 21 22 23 22 22 22 21 20
6 6 8 10 11 11 12 13 13 14 14 14 14 14 13 12 13 14 16 17 17 18 19 19 19 19 20 20 20 20 20 19 19 18 19 21 22 23 23 22 22 22
8 9 10 11 12 12 12 12 13 14 14 14 13 13 12 12 13 16 16 17 17 16 16 17 17 17 17 17 17 18 18 18 18 18 17 17 19 22 23 23 22 22
10 10 11 11 11 12 12 12 12 12 12 12 12 12 11 12 14 17 16 16 16 16 15 14 14 14 14 15 15 16 17 17 18 19 18 17 17 18 21 22 23 23
9 9 11 12 13 13 12 11 12 11 11 11 11 11 9 11 13 15 16 15 15 15 15 13 13 14 13 14 15 16 16 17 18 19 19 19 18 18 19 20 22 22
11 11 13 14 14 13 12 12 11 11 11 11 11 11 11 11 13 14 14 15 15 15 14 13 13 12 15 21 19 16 16 15 16 17 19 19 19 18 18 19 20 21
14 15 16 15 14 13 13 12 12 12 11 11 11 11 11 12 13 14 14 14 15 15 15 14 14 14 20 21 22 22 18 15 16 16 18 19 20 20 19 19 19 21
16 16 17 16 15 14 13 13 12 12 12 11 11 12 11 11 13 13 13 13 13 14 15 15 16 19 23 24 24 24 22 17 16 16 17 19 20 21 21 21 22 22
17 17 16 16 16 15 14 14 13 12 12 12 12 12 12 12 13 13 12 12 12 15 15 17 16 21 24 26 26 27 27 23 17 18 18 19 20 21 22 23 22 21
18 18 18 17 16 16 15 14 14 12 11 12 11 12 12 12 12 12 12 12 12 13 15 16 17 21 26 26 26 28 28 25 19 20 19 19 20 21 21 22 22 22
19 20 20 19 18 17 15 13 13 11 11 12 12 12 12 12 12 12 12 12 13 12 12 14 14 22 26 27 28 29 30 27 21 19 17 18 19 21 22 22 22 22
20 21 23 22 19 17 14 12 11 11 11 11 11 11 11 11 10 10 11 11 11 12 12 12 11 19 23 25 27 28 31 27 24 22 20 19 19 20 21 21 22 23
21 22 24 23 20 16 13 11 10 10 10 12 11 11 11 11 11 10 10 11 11 12 13 12 11 16 22 23 24 26 26 23 24 23 23 22 21 21 20 20 21 23
20 23 23 22 19 15 12 11 10 10 10 12 12 11 10 9 10 10 9 10 10 11 12 11 11 16 23 23 24 26 26 23 22 23 23 24 24 24 24 22 22 24
20 22 22 20 17 14 13 13 12 11 12 14 12 12 10 11 12 10 9 8 8 8 10 11 10 14 23 24 26 27 26 22 23 22 22 24 26 27 28 27 26 26
20 21 21 19 15 14 14 13 15 16 15 14 14 13 13 12 12 11 8 8 8 8 10 11 12 13 21 27 29 28 29 25 24 24 23 25 27 27 28 28 27 26
Wind_Direction
283 264 268 265 269 273 289 304 300 317 310 305 310 325 336 332 329 332 336 337 338 340 341 348 350 353 354 353 356 351 348 346 339 337 338 339 352 356 355 354 344 346
311 296 271 270 264 259 264 298 310 319 322 311 317 308 314 317 327 332 328 332 332 336 332 333 341 343 346 348 349 348 350 348 344 336 336 333 338 343 347 351 348 344
318 312 312 311 310 320 320 304 314 319 321 320 299 304 299 308 319 325 329 328 331 331 331 328 330 333 335 338 339 341 343 349 346 344 339 335 331 332 338 339 345 341
349 346 337 338 331 336 335 319 306 308 306 305 312 306 312 304 310 322 327 331 328 328 329 327 326 326 326 326 325 330 334 341 343 341 344 336 333 329 330 328 336 340
1 359 351 343 336 333 330 334 328 310 318 326 320 304 311 318 323 325 324 330 327 327 325 328 323 321 320 318 318 319 322 327 332 332 339 342 338 332 330 324 328 338
23 11 2 352 340 330 328 329 333 331 328 322 334 321 314 323 330 334 330 326 326 326 324 323 322 319 318 316 314 315 313 317 321 324 327 337 341 338 332 331 328 329
34 23 16 3 347 335 328 324 323 327 323 320 309 324 320 318 327 331 331 326 321 321 321 319 318 316 313 311 310 311 310 313 312 318 322 325 332 341 339 336 338 331
46 48 43 27 13 358 343 327 324 320 319 315 320 323 325 328 322 321 323 326 320 318 316 315 314 312 309 307 309 308 310 306 309 313 318 319 321 331 339 337 340 340
27 40 47 38 30 18 1 338 326 323 316 323 327 322 325 330 328 321 322 326 328 320 314 311 309 307 304 304 306 309 311 310 310 313 315 318 318 324 331 333 335 339
24 19 14 13 15 360 355 342 326 324 323 327 330 326 327 327 329 333 323 327 328 323 319 314 310 308 306 306 309 310 311 314 314 314 315 317 319 319 321 326 332 332
22 10 3 2 1 348 350 341 334 330 329 334 330 332 332 327 328 331 331 325 325 326 327 326 320 316 314 312 310 310 313 314 315 315 315 317 318 319 319 322 326 331
13 5 3 360 357 351 347 343 340 338 335 335 335 337 333 332 331 329 334 336 333 331 331 332 329 327 327 324 320 315 314 314 315 316 316 317 318 318 320 321 325 328
7 4 357 352 349 346 338 338 341 341 339 337 337 339 337 333 333 338 339 342 344 341 341 342 342 340 336 331 326 320 319 318 316 316 315 313 317 321 324 325 327 326
358 349 343 339 335 333 334 337 339 339 336 331 331 341 341 339 336 344 347 346 349 353 355 352 351 349 346 341 336 330 324 323 320 317 319 318 318 322 323 325 328 329
336 329 325 321 322 323 327 331 333 331 328 325 325 333 332 342 343 345 350 352 355 359 1 358 356 357 352 350 348 346 339 336 332 328 326 327 328 327 326 328 328 330
330 323 319 316 314 317 319 320 321 323 325 323 323 330 332 338 347 348 354 358 359 1 1 358 359 356 360 1 357 353 354 350 347 345 342 342 346 348 346 343 342 341
327 324 318 320 318 310 306 312 318 316 319 321 320 323 332 337 346 354 356 358 2 0 1 360 0 1 2 359 1 3 358 358 357 358 357 358 359 2 5 5 2 359
329 325 324 324 317 312 306 305 306 311 317 320 320 321 324 332 347 355 355 354 359 2 1 1 2 5 360 358 360 2 1 1 1 1 2 4 5 8 10 12 12 9
326 329 330 325 323 316 300 291 298 308 315 315 321 316 316 336 347 349 355 353 353 358 1 2 2 1 356 357 357 358 1 3 4 6 6 6 6 8 10 9 7 5
325 328 329 326 318 311 301 296 297 310 312 306 303 308 323 334 336 345 348 354 355 352 356 358 359 353 353 354 353 354 356 358 5 6 7 4 3 6 5 3 359 354
323 323 324 319 310 304 303 301 299 297 300 298 302 314 320 322 328 336 346 352 357 351 344 352 351 350 348 350 349 348 351 351 359 358 358 357 357 357 357 353 347 344
320 320 321 317 307 297 298 300 293 293 300 298 297 298 299 303 312 327 338 340 341 347 353 353 342 341 341 343 344 342 341 337 344 347 348 348 349 347 343 339 336 335
314 317 320 317 305 293 294 299 295 289 286 281 287 293 298 306 313 318 315 321 330 341 354 353 332 327 333 336 335 332 321 322 327 330 334 338 339 333 329 327 326 327
305 313 320 316 302 298 294 284 278 268 273 275 285 288 293 294 284 281 290 304 323 340 343 342 335 320 326 331 329 324 321 316 315 319 327 329 328 321 316 318 323 333
297 309 318 316 308 299 284 275 272 267 259 261 269 272 273 259 255 262 272 285 303 317 331 337 322 313 317 323 326 322 319 309 307 312 319 319 312 312 312 312 314 319
290 303 313 313 303 287 278 271 260 257 260 263 262 263 261 258 256 258 266 270 279 292 299 305 305 300 298 312 314 316 319 308 303 307 313 309 304 307 309 312 311 307